| time (UTC) | temp F | wind direction | speed MPH | gust MPH | rain 1hr in | rain 24hr in | rain mn in | humidity % | barometer mb |
| 20260506071328 | 49 | 360 | 9.0 | 16.0 | 0.00 | 0.00 | 0.00 | 66 | 1011.5 |
| 20260506070836 | 49 | 20 | 11.0 | 16.0 | 0.00 | 0.00 | 0.00 | 66 | 1011.4 |
| 20260506070317 | 49 | 360 | 9.0 | 15.0 | 0.00 | 0.00 | 0.00 | 67 | 1011.6 |
| 20260506062317 | 50 | 21 | 7.0 | 14.0 | 0.00 | 0.00 | 0.00 | 69 | 1012.0 |
| 20260506061819 | 50 | 36 | 7.0 | 14.0 | 0.00 | 0.00 | 0.00 | 69 | 1012.0 |
| 20260506061325 | 50 | 20 | 8.0 | 18.0 | 0.00 | 0.00 | 0.00 | 69 | 1011.8 |
| 20260506060832 | 50 | 31 | 7.0 | 18.0 | 0.00 | 0.00 | 0.00 | 69 | 1011.7 |
| 20260506060312 | 50 | 26 | 7.0 | 14.0 | 0.00 | 0.00 | 0.00 | 70 | 1011.7 |
| 20260506051314 | 50 | 63 | 7.0 | 15.0 | 0.00 | 0.00 | 0.00 | 68 | 1011.6 |
| 20260506050814 | 50 | 67 | 7.0 | 14.0 | 0.00 | 0.00 | 0.00 | 68 | 1011.7 |
| 20260506050322 | 50 | 77 | 7.0 | 14.0 | 0.00 | 0.00 | 0.00 | 68 | 1011.9 |
| 20260506044844 | 50 | 66 | 9.0 | 16.0 | 0.00 | 0.00 | 0.00 | 68 | 1011.6 |
| 20260506044323 | 50 | 70 | 8.0 | 15.0 | 0.00 | 0.00 | 0.00 | 68 | 1011.5 |
| 20260506043823 | 50 | 40 | 9.0 | 15.0 | 0.00 | 0.00 | 0.00 | 68 | 1011.6 |
| 20260506043351 | 50 | 360 | 8.0 | 15.0 | 0.00 | 0.00 | 0.00 | 68 | 1011.6 |
| 20260506042837 | 50 | 22 | 10.0 | 15.0 | 0.00 | 0.00 | 0.00 | 68 | 1011.7 |
| 20260506042318 | 50 | 66 | 8.0 | 16.0 | 0.00 | 0.00 | 0.00 | 68 | 1011.6 |
| 20260506041817 | 50 | 32 | 11.0 | 16.0 | 0.00 | 0.00 | 0.00 | 68 | 1011.3 |
| 20260506041345 | 50 | 63 | 10.0 | 16.0 | 0.00 | 0.00 | 0.00 | 68 | 1011.5 |
| 20260506040823 | 51 | 360 | 7.0 | 13.0 | 0.00 | 0.00 | 0.00 | 68 | 1011.6 |
| 20260506040330 | 51 | 28 | 8.0 | 14.0 | 0.00 | 0.00 | 0.00 | 68 | 1011.5 |
| 20260506035830 | 51 | 56 | 7.0 | 14.0 | 0.00 | 0.00 | 0.00 | 68 | 1011.7 |
| 20260506035330 | 51 | 84 | 5.0 | 12.0 | 0.00 | 0.00 | 0.00 | 68 | 1011.6 |
| 20260506034839 | 51 | 24 | 6.0 | 14.0 | 0.00 | 0.00 | 0.00 | 68 | 1011.5 |
| 20260506034318 | 51 | 28 | 5.0 | 14.0 | 0.00 | 0.00 | 0.00 | 68 | 1011.6 |
| 20260506033825 | 51 | 50 | 6.0 | 11.0 | 0.00 | 0.00 | 0.00 | 68 | 1011.5 |
| 20260506033326 | 51 | 46 | 7.0 | 12.0 | 0.00 | 0.00 | 0.00 | 68 | 1011.4 |
| 20260506032827 | 51 | 44 | 6.0 | 16.0 | 0.00 | 0.00 | 0.00 | 68 | 1011.3 |
| 20260506032334 | 51 | 52 | 8.0 | 16.0 | 0.00 | 0.00 | 0.00 | 67 | 1011.2 |
| 20260506031814 | 51 | 360 | 7.0 | 12.0 | 0.00 | 0.00 | 0.00 | 67 | 1011.2 |
| 20260506031313 | 51 | 360 | 8.0 | 17.0 | 0.00 | 0.00 | 0.00 | 67 | 1011.3 |
| 20260506030821 | 51 | 360 | 11.0 | 17.0 | 0.00 | 0.00 | 0.00 | 66 | 1011.0 |
| 20260506030328 | 51 | 360 | 9.0 | 18.0 | 0.00 | 0.00 | 0.00 | 66 | 1011.1 |
| 20260506025828 | 52 | 360 | 7.0 | 18.0 | 0.00 | 0.00 | 0.00 | 66 | 1010.9 |
| 20260506025335 | 52 | 360 | 8.0 | 15.0 | 0.00 | 0.00 | 0.00 | 66 | 1011.1 |
| 20260506024814 | 52 | 360 | 8.0 | 13.0 | 0.00 | 0.00 | 0.00 | 65 | 1011.1 |
| 20260506024342 | 52 | 360 | 7.0 | 13.0 | 0.00 | 0.00 | 0.00 | 65 | 1011.0 |
| 20260506023850 | 52 | 360 | 9.0 | 16.0 | 0.00 | 0.00 | 0.00 | 65 | 1010.9 |
| 20260506023328 | 52 | 360 | 9.0 | 16.0 | 0.00 | 0.00 | 0.00 | 65 | 1010.7 |
| 20260506022828 | 52 | 360 | 7.0 | 17.0 | 0.00 | 0.00 | 0.00 | 65 | 1010.7 |
| 20260506022335 | 52 | 360 | 10.0 | 17.0 | 0.00 | 0.00 | 0.00 | 65 | 1010.5 |
| 20260506021815 | 52 | 360 | 10.0 | 17.0 | 0.00 | 0.00 | 0.00 | 66 | 1010.4 |
| 20260506021315 | 52 | 347 | 8.0 | 16.0 | 0.00 | 0.00 | 0.00 | 66 | 1010.4 |
| 20260506020822 | 52 | 35 | 5.0 | 16.0 | 0.00 | 0.00 | 0.00 | 66 | 1010.3 |
| 20260506020321 | 52 | 35 | 7.0 | 16.0 | 0.00 | 0.00 | 0.00 | 66 | 1010.1 |
| 20260506015848 | 53 | 22 | 9.0 | 15.0 | 0.00 | 0.00 | 0.00 | 66 | 1010.0 |
| 20260506015327 | 53 | 42 | 7.0 | 14.0 | 0.00 | 0.00 | 0.00 | 66 | 1010.0 |
| 20260506014836 | 53 | 70 | 10.0 | 14.0 | 0.00 | 0.00 | 0.00 | 65 | 1009.7 |
| 20260506014314 | 53 | 69 | 8.0 | 14.0 | 0.00 | 0.00 | 0.00 | 66 | 1009.6 |
| 20260506013812 | 53 | 48 | 5.0 | 14.0 | 0.00 | 0.00 | 0.00 | 66 | 1009.7 |
| 20260506013313 | 53 | 49 | 7.0 | 15.0 | 0.00 | 0.00 | 0.00 | 66 | 1009.5 |
| 20260506012819 | 53 | 23 | 10.0 | 15.0 | 0.00 | 0.00 | 0.00 | 65 | 1009.4 |
| 20260506012320 | 53 | 37 | 6.0 | 15.0 | 0.00 | 0.00 | 0.00 | 65 | 1009.2 |